EW5773 Weather Reports


Display with metric or nautical units.
time (UTC)temp
F
wind
direction
speed
MPH
gust
MPH
rain 1hr
in
rain 24hr
in
rain mn
in
humidity
%
barometer
mb
20260831071528 63 228 9.0 16.0 0.00 0.00 0.00 82 1014.5
20260831070028 63 194 10.0 19.0 0.00 0.00 0.00 84 1014.4
20260831064555 62 211 7.0 15.0 0.00 0.00 0.00 85 1014.3
20260831063024 62 229 7.0 18.0 0.00 0.00 0.00 85 1014.1
20260831061520 62 200 6.0 13.0 0.00 0.00 0.00 85 1013.9
20260831060017 61 199 8.0 14.0 0.00 0.00 0.00 86 1013.7
20260831054514 61 217 4.0 13.0 0.00 0.00 0.00 85 1013.7
20260831053031 61 262 4.0 14.0 0.00 0.00 0.00 84 1013.5
20260831051512 61 158 7.0 15.0 0.00 0.00 0.00 84 1013.4
20260831050007 62 211 5.0 16.0 0.00 0.00 0.00 84 1013.3
20260831044515 62 207 7.0 20.0 0.00 0.00 0.00 83 1013.1
20260831043005 62 207 9.0 19.0 0.00 0.00 0.00 84 1013.1
20260831041505 62 133 4.0 12.0 0.00 0.00 0.00 85 1013.0
20260831034524 62 167 7.0 11.0 0.00 0.00 0.00 85 1013.0
20260831033020 61 144 6.0 11.0 0.00 0.00 0.00 85 1013.1
20260831031557 62 192 6.0 13.0 0.00 0.00 0.00 84 1013.1
20260831030013 62 219 4.0 10.0 0.00 0.00 0.00 84 1013.1
20260831024514 62 205 8.0 14.0 0.00 0.00 0.00 83 1013.1
20260831023014 61 331 7.0 15.0 0.00 0.00 0.00 85 1013.1
20260831021509 61 191 6.0 12.0 0.00 0.00 0.00 86 1013.0
20260831020009 62 174 7.0 12.0 0.00 0.00 0.00 86 1012.9
20260831014509 62 167 8.0 13.0 0.00 0.00 0.00 86 1012.9
20260831013008 62 178 6.0 18.0 0.00 0.00 0.00 86 1013.0
20260831011509 62 189 7.0 15.0 0.00 0.00 0.00 86 1012.9
20260831010009 62 201 8.0 16.0 0.00 0.00 0.00 85 1012.9
20260831004523 62 193 7.0 14.0 0.00 0.00 0.00 84 1013.0
20260831003019 62 174 6.0 18.0 0.00 0.00 0.00 84 1012.9
20260831001515 62 179 9.0 16.0 0.00 0.00 0.00 83 1012.9
20260831000025 63 177 8.0 15.0 0.00 0.00 0.00 82 1012.9
20260830234512 63 200 8.0 14.0 0.00 0.00 0.00 81 1013.0
20260830233015 63 159 6.0 12.0 0.00 0.00 0.00 80 1013.0
20260830231505 62 175 6.0 11.0 0.00 0.00 0.00 79 1013.1
20260830230009 62 170 7.0 11.0 0.00 0.00 0.00 79 1013.0
20260830224503 62 196 4.0 8.0 0.00 0.00 0.00 79 1013.0
20260830223003 63 198 5.0 11.0 0.00 0.00 0.00 78 1012.9
20260830221518 63 178 5.0 9.0 0.00 0.00 0.00 78 1012.8
20260830220018 63 199 6.0 12.0 0.00 0.00 0.00 77 1012.9
20260830214516 63 224 5.0 11.0 0.00 0.00 0.00 78 1012.8
20260830213011 64 200 3.0 10.0 0.00 0.00 0.00 77 1012.8
20260830211514 64 194 4.0 10.0 0.00 0.00 0.00 76 1012.7
20260830210010 65 187 6.0 12.0 0.00 0.00 0.00 75 1012.5
20260830204506 65 196 7.0 12.0 0.00 0.00 0.00 74 1012.4
20260830203009 65 196 6.0 10.0 0.00 0.00 0.00 74 1012.3
20260830201517 66 196 5.0 10.0 0.00 0.00 0.00 73 1012.2
20260830200017 66 198 5.0 10.0 0.00 0.00 0.00 73 1012.3
20260830194521 67 194 5.0 11.0 0.00 0.00 0.00 72 1012.3
20260830193020 67 197 5.0 9.0 0.00 0.00 0.00 70 1012.3
20260830191519 68 214 3.0 9.0 0.00 0.00 0.00 69 1012.1
20260830190015 69 208 6.0 13.0 0.00 0.00 0.00 67 1011.9
20260830184513 69 166 5.0 10.0 0.00 0.00 0.00 66 1011.7
20260830183008 70 194 5.0 11.0 0.00 0.00 0.00 64 1011.5
20260830181505 70 203 7.0 13.0 0.00 0.00 0.00 62 1011.5
20260830180003 71 197 8.0 19.0 0.00 0.00 0.00 60 1011.5
20260830174606 72 190 7.0 14.0 0.00 0.00 0.00 59 1011.5
20260830173054 73 146 7.0 17.0 0.00 0.00 0.00 58 1011.4
20260830171548 73 191 7.0 20.0 0.00 0.00 0.00 58 1011.3
20260830170037 73 205 9.0 16.0 0.00 0.00 0.00 58 1011.4
20260830164532 74 63 8.0 17.0 0.00 0.00 0.00 61 1011.3
20260830163010 73 139 7.0 20.0 0.00 0.00 0.00 60 1011.3
20260830161506 73 193 10.0 21.0 0.00 0.00 0.00 60 1011.4
20260830160018 73 182 8.0 18.0 0.00 0.00 0.00 61 1011.5
20260830154541 73 150 7.0 16.0 0.00 0.00 0.00 60 1011.6
20260830153102 73 184 8.0 16.0 0.00 0.00 0.00 60 1011.8
20260830151509 73 237 7.0 16.0 0.00 0.00 0.00 60 1011.9
20260830150006 73 242 6.0 13.0 0.00 0.00 0.00 60 1012.0
20260830144506 73 188 6.0 19.0 0.00 0.00 0.00 60 1012.1
20260830143006 74 172 8.0 15.0 0.00 0.00 0.00 59 1012.2
20260830141526 73 186 10.0 22.0 0.00 0.00 0.00 59 1012.2
20260830140012 74 195 9.0 19.0 0.00 0.00 0.00 58 1012.4
20260830134517 73 155 11.0 19.0 0.00 0.01 0.00 60 1012.7
20260830133006 73 181 8.0 18.0 0.00 0.01 0.00 61 1012.9
20260830131506 73 178 4.0 15.0 0.00 0.01 0.00 60 1012.9
20260830130010 73 203 7.0 17.0 0.00 0.02 0.00 62 1013.0
20260830124606 73 223 6.0 16.0 0.00 0.02 0.00 64 1013.1
20260830123126 72 113 10.0 18.0 0.00 0.02 0.00 64 1013.1
20260830121602 72 127 9.0 20.0 0.00 0.02 0.00 64 1013.0
20260830120053 73 201 7.0 14.0 0.00 0.02 0.00 62 1013.1
20260830114505 73 185 5.0 16.0 0.00 0.02 0.00 63 1013.2
20260830113003 72 227 9.0 17.0 0.00 0.02 0.00 64 1013.2
20260830111512 70 229 7.0 18.0 0.00 0.02 0.00 68 1013.3
20260830110111 69 192 7.0 15.0 0.00 0.02 0.00 69 1013.4
20260830104508 69 219 6.0 14.0 0.00 0.02 0.00 70 1013.6
20260830103012 70 203 6.0 15.0 0.00 0.02 0.00 70 1013.7
20260830101507 69 227 8.0 16.0 0.00 0.02 0.00 73 1013.7
20260830100008 69 127 6.0 13.0 0.00 0.02 0.00 73 1013.9
20260830094510 68 225 6.0 13.0 0.00 0.02 0.00 74 1013.9
20260830093001 69 202 6.0 17.0 0.00 0.02 0.00 73 1014.0
20260830091602 68 360 5.0 14.0 0.00 0.02 0.00 77 1014.0
20260830090104 67 178 6.0 10.0 0.00 0.02 0.00 81 1014.0
20260830084607 66 177 4.0 10.0 0.00 0.02 0.00 86 1014.0
20260830083057 65 176 6.0 13.0 0.00 0.02 0.00 88 1014.0
20260830081604 64 193 7.0 12.0 0.00 0.02 0.00 91 1014.1
20260830080020 64 186 3.0 10.0 0.00 0.02 0.00 93 1014.0
20260830074523 63 138 3.0 7.0 0.00 0.02 0.00 94 1014.0
20260830073022 63 187 4.0 8.0 0.00 0.02 0.00 94 1013.8